Regional Weather Roundup
Issued by NWS

Home | Current Version | Previous Version | Text Only | Print | Product List | Glossary Off
Versions: 1 2 3 4 5 6 7 8 9 10 11 12 13 14 15 16 17 18 19 20 21 22 23 24 25 26 27 28 29 30 31 32 33 34 35 36 37 38 39 40 41 42 43 44 45 46 47 48 49 50

000
ASUS43 KDMX 301203
RWRIA

WEATHER ROUNDUP FOR IOWA
NATIONAL WEATHER SERVICE DES MOINES IA
700 AM CDT SAT JUL 30 2016

NOTE: "FAIR" INDICATES FEW OR NO CLOUDS BELOW 12,000 FEET WITH NO
SIGNIFICANT WEATHER AND/OR OBSTRUCTIONS TO VISIBILITY.

* - THESE STATIONS ARE NOT NWS STATIONS...THUS NOT UNDER NWS
QUALITY CONTROL.  THEY ALSO DO NOT REPORT WEATHER SUCH
AS PRECIPITATION OR FOG.

IAZ001>003-012>014-020>022-031>034-043>046-301300-
   NORTHWEST IOWA

CITY           SKY/WX    TMP DP  RH WIND       PRES   REMARKS
CARROLL *      PTCLDY    61  61 100 CALM      30.02S
CHEROKEE *     CLEAR     57  57 100 CALM      30.03S
DENISON *      CLEAR     57  57 100 CALM      30.01S FOG
LE MARS *      CLEAR     57  55  94 CALM      30.04R
SHELDON *      CLEAR     54  54 100 NE5       30.03R
SIOUX CITY     CLEAR     58  57  97 CALM      30.03R
6HR MIN TEMP:  57; 6HR MAX TEMP:  68;

SPENCER        CLEAR     53  51  93 NW3       30.04R
6HR MIN TEMP:  51; 6HR MAX TEMP:  57;

STORM LAKE *   CLEAR     59  57  94 N6        30.03F
$$

IAZ055>058-069>071-079>083-090>094-301300-
   SOUTHWEST IOWA

CITY           SKY/WX    TMP DP  RH WIND       PRES   REMARKS
ATLANTIC *     FOG       59  59 100 N3        30.02S VSB 1/4
CLARINDA *     FOG       59  59 100 MISG      30.04S VSB<1/4
COUNCIL BLFS * CLEAR     61  61 100 N5        30.02R
CRESTON *      CLEAR     63  61  94 CALM      30.03S
HARLAN  *      CLEAR     57  57 100 CALM      30.05S
LAMONI         CLOUDY    64  63  96 NW3       30.02R
6HR MIN TEMP:  61; 6HR MAX TEMP:  64;

RED OAK *      PTCLDY    61  59  94 CALM      30.02R
SHENANDOAH *   FOG       59  59 100 CALM      30.03R VSB 3/4
$$

IAZ047>049-059>061-072>074-084-301300-
   CENTRAL IOWA

CITY           SKY/WX    TMP DP  RH WIND       PRES   REMARKS
AMES           CLOUDY    64  64 100 CALM      30.01S
6HR MIN TEMP:  61; 6HR MAX TEMP:  68;

ANKENY *         N/A    N/A N/A N/A MISG        N/A
BOONE *        CLOUDY    64  63  94 CALM      30.01S
CHARITON *       N/A    N/A N/A N/A MISG        N/A
DES MOINES     PTCLDY    67  64  90 NE3       30.00S
6HR MIN TEMP:  66; 6HR MAX TEMP:  70; 6HR PCP: TRACE;

GRINNELL*      CLOUDY    66  64  94 N3        30.01S FOG
KNOXVILLE *    MOCLDY    66  64  94 NW6       29.99S FOG
MARSHALLTOWN   FOG       63  63 100 NW3       30.01R VSB 1/4
6HR MIN TEMP:  61; 6HR MAX TEMP:  65;

NEWTON *       CLOUDY    66  66 100 N3        30.00S
PELLA *        MOCLDY    65  64  96 N3        30.01S FOG
PERRY *        CLOUDY    63  63  99 CALM      30.01S
$$

IAZ004>006-015-016-023>025-035-036-301300-
   NORTH CENTRAL IOWA

CITY           SKY/WX    TMP DP  RH WIND       PRES   REMARKS
ALGONA *       CLOUDY    63  61  94 N5        30.03S
ESTHERVILLE    MOCLDY    56  55  97 CALM      30.03S
6HR MIN TEMP:  53; 6HR MAX TEMP:  57;

FORT DODGE *   CLOUDY    64  63  94 CALM      30.03R
MASON CITY     PTCLDY    62  61  96 CALM      30.05R
6HR MIN TEMP:  60; 6HR MAX TEMP:  66;

FOREST CITY *  CLOUDY    63  63 100 CALM      30.03S
IOWA FALLS *   MOCLDY    64  63  95 CALM      30.03F FOG
$$

IAZ007>011-017>019-026>030-037>042-050>054-066-301300-
   NORTHEAST IOWA

CITY           SKY/WX    TMP DP  RH WIND       PRES   REMARKS
CEDAR RAPIDS   CLOUDY    67  67 100 NE6       29.99S
6HR MIN TEMP:  67; 6HR MAX TEMP:  69;

CHARLES CITY * CLOUDY    64  64 100 NE5       30.03R FOG
CLINTON *      CLOUDY    66  65  96 N6        29.99R
DECORAH *      CLOUDY    66  66 100 CALM      30.03R FOG
DUBUQUE        CLOUDY    65  63  93 N5        30.02R
6HR MIN TEMP:  63; 6HR MAX TEMP:  66;

MONTICELLO *   CLOUDY    66  64  94 CALM      30.00R
OELWEIN *      CLEAR     64  63  94 NE3       30.03R FOG
WATERLOO       CLOUDY    65  63  93 CALM      30.01R FOG
6HR MIN TEMP:  63; 6HR MAX TEMP:  66;

$$

IAZ064-065-067-068-078-301300-
   EAST CENTRAL IOWA

CITY           SKY/WX    TMP DP  RH WIND       PRES   REMARKS
DAVENPORT      CLOUDY    67  65  93 N3        29.99R
6HR MIN TEMP:  67; 6HR MAX TEMP:  70;

IOWA CITY      CLOUDY    69  66  90 N5        30.00R
6HR MIN TEMP:  68; 6HR MAX TEMP:  70; 6HR PCP: TRACE;

MT. PLEASANT * CLOUDY    70  70 100 NW3       29.99R FOG
MUSCATINE *    CLOUDY    68  66  94 CALM      29.99R
QUAD CITIES    CLOUDY    71  65  81 CALM      29.97R
6HR MIN TEMP:  70; 6HR MAX TEMP:  71;

$$

IAZ062-063-075>077-085>089-095>099-301300-
   SOUTHEAST IOWA

CITY           SKY/WX    TMP DP  RH WIND       PRES   REMARKS
BURLINGTON     PTCLDY    68  68 100 N3        29.97F FOG
6HR MIN TEMP:  68; 6HR MAX TEMP:  69;

FAIRFIELD *    CLOUDY    68  66  94 CALM      29.99S FOG
KEOKUK *       CLOUDY    68  68 100 NW5       29.97S FOG
CENTERVILLE *  MOCLDY    64  64 100 CALM      30.02R
OTTUMWA        CLOUDY    66  65  96 NW6       29.99S
6HR MIN TEMP:  66; 6HR MAX TEMP:  67;

WASHINGTON *   CLOUDY    68  68 100 N6        30.00R FOG
$$

ABBREVIATIONS USED IN REMARKS
   TC - TEMPERATURES IN CELSIUS
  WCI - WIND CHILL INDEX
   HX - HEAT INDEX
  VSB - VISIBILITY
$$





USA.gov is the U.S. government's official web portal to all federal, state and local government web resources and services.